Wind_Speed
127 128 129 129 128 127 125 121 116 111 107 105 104 103 101 99 99 99 97 96 95 94 93 93 94 92 91 89 88 85 82 80 79 77 75 74 73 72 71 71 72 72 71 71 70 69 68 68 68 66 64 63 65 66 64 64 66 68 70 71 72 74 76 79 81 82 84 89 95 100 104 109 114 119 123 127 132 136 141 144 147 151 154 157 159
129 129 129 129 128 126 122 117 113 109 105 102 100 100 99 96 95 95 94 93 93 92 91 91 90 89 88 87 85 83 80 78 76 74 72 71 70 69 68 68 69 69 69 68 68 67 67 67 67 65 62 63 64 64 63 63 65 67 69 70 71 73 75 78 79 81 82 86 91 97 101 105 111 116 120 125 129 134 140 144 148 151 154 157 159
130 131 130 128 125 122 118 114 111 107 104 100 97 97 97 95 93 91 90 90 90 89 88 89 87 85 85 84 82 80 77 75 72 70 69 68 67 66 66 66 66 67 67 67 66 66 66 66 65 63 61 62 63 63 62 62 64 66 67 68 70 72 74 76 78 79 81 84 88 94 98 102 107 112 117 122 126 132 138 143 147 151 155 157 159
131 130 128 125 120 117 114 111 108 104 102 99 96 95 95 94 91 88 87 87 87 86 85 86 85 83 82 81 79 77 74 72 69 67 66 65 64 63 64 64 64 64 65 65 65 65 64 64 64 62 61 61 62 62 61 62 63 65 65 67 69 71 73 76 77 78 80 82 85 90 95 99 103 108 113 118 124 129 135 141 147 151 155 157 159
130 127 123 119 116 113 111 108 104 102 100 98 95 92 92 92 89 86 85 85 84 82 82 83 82 80 78 77 75 73 71 69 67 65 63 62 61 62 62 62 61 61 62 64 64 64 63 62 62 61 60 60 61 60 60 60 62 63 64 65 67 70 72 74 76 76 78 80 82 86 92 96 99 104 110 115 120 126 133 140 146 150 154 157 159
125 122 119 116 113 110 107 104 102 100 98 96 94 91 89 89 87 84 83 83 81 79 79 79 78 76 74 73 72 70 68 66 64 63 61 60 59 60 60 59 59 60 61 62 63 63 62 61 60 60 59 60 59 59 58 59 61 62 63 63 65 68 71 73 74 75 76 78 80 83 88 93 96 100 106 111 116 123 130 137 144 149 153 157 159
121 118 116 113 110 107 105 102 101 98 96 94 92 89 88 87 84 80 81 81 78 76 76 75 74 73 70 69 68 66 65 63 62 60 58 57 57 57 57 57 57 58 60 61 61 61 60 59 59 58 58 58 58 58 57 58 60 61 61 62 64 67 70 72 73 74 74 76 78 81 85 90 93 96 101 107 112 118 126 134 141 147 152 156 159
118 116 113 111 108 106 103 101 99 97 95 92 90 87 85 84 80 77 78 78 75 74 73 72 71 70 68 66 65 64 62 61 59 57 56 55 55 56 56 56 57 58 58 59 59 59 58 57 57 57 57 57 57 56 57 58 60 60 60 61 64 67 69 71 72 72 73 75 76 79 83 87 91 94 98 103 108 114 121 129 137 144 150 155 158
116 113 111 109 107 104 102 99 97 95 93 91 88 86 83 81 77 75 75 75 72 70 70 68 67 67 65 63 62 61 60 58 56 54 53 53 53 53 54 55 56 57 57 57 57 57 56 56 56 56 55 55 56 56 57 58 59 59 59 60 63 66 67 69 71 71 72 74 76 78 80 85 89 92 95 100 105 110 117 123 131 139 146 152 156
113 111 110 108 105 103 100 98 96 94 92 89 87 84 82 78 74 72 73 72 69 68 68 65 64 64 63 61 60 59 58 56 53 51 50 50 51 52 54 55 55 55 55 55 55 55 54 54 55 54 54 54 55 56 57 58 58 58 58 60 62 64 66 68 70 71 72 73 75 77 79 82 87 91 94 98 103 108 113 119 126 133 141 148 154
111 109 108 106 103 101 98 96 94 93 90 87 85 82 79 76 72 71 72 71 68 67 66 63 61 61 60 59 58 56 55 53 50 48 49 50 51 52 53 53 53 53 53 53 53 53 52 53 53 53 53 54 55 56 57 57 57 57 57 60 62 63 65 67 69 70 71 73 75 76 78 80 85 90 93 96 100 105 110 116 122 128 135 142 149
108 107 105 103 101 98 96 94 92 90 88 86 83 80 78 74 71 69 70 69 66 66 65 61 59 59 58 57 56 54 52 50 47 47 48 50 51 52 52 52 51 51 51 51 51 51 51 51 52 52 53 54 55 56 56 55 55 56 58 60 62 62 64 65 67 69 71 73 74 75 77 79 83 88 92 94 98 103 108 113 118 124 129 136 144
106 104 103 101 99 96 94 92 90 88 86 84 81 79 76 73 70 68 68 67 65 64 63 60 57 57 56 55 54 52 50 47 46 47 48 49 51 51 51 50 49 49 49 49 49 50 50 50 51 51 52 54 55 56 55 54 54 56 59 61 61 61 63 64 66 68 71 72 74 75 76 77 80 84 90 93 96 100 104 109 114 119 125 131 138
104 102 101 99 97 94 92 90 88 86 84 81 79 77 74 72 70 68 66 65 63 62 60 58 56 55 54 52 51 50 48 45 45 47 48 49 49 50 50 48 47 48 48 48 48 49 49 50 50 51 52 53 55 55 53 52 54 57 59 61 61 60 62 63 65 67 70 72 73 74 75 76 78 81 87 91 94 97 101 105 110 115 120 126 132
101 100 98 96 94 92 90 88 86 84 82 80 77 75 73 70 68 66 65 64 61 60 58 56 54 53 51 50 49 48 46 44 44 46 48 48 48 48 48 47 45 47 47 47 48 49 49 50 51 52 52 53 54 53 52 52 55 57 60 61 59 59 60 62 64 66 69 71 73 74 74 75 77 79 84 88 92 95 98 102 107 111 116 121 127
98 96 94 93 91 89 87 85 84 82 79 77 75 73 71 69 67 64 64 62 59 58 57 54 52 51 49 48 47 45 44 43 43 45 46 46 46 47 47 46 45 45 47 47 48 49 49 50 51 51 52 53 52 51 51 53 55 58 60 60 58 58 60 61 63 65 68 70 72 73 74 75 76 78 81 85 89 93 96 99 103 107 111 116 122
94 92 91 89 88 86 84 82 80 78 76 74 72 70 69 68 66 64 62 60 57 56 56 53 50 49 47 46 44 43 42 41 42 44 44 44 45 45 46 45 44 44 45 46 47 48 49 50 51 51 52 51 50 50 51 53 55 58 59 58 57 58 59 60 62 64 66 69 71 73 74 75 76 77 79 82 86 90 93 96 99 103 107 111 117
90 89 87 86 85 83 81 79 77 75 73 71 69 68 67 66 64 62 61 58 55 55 55 52 49 47 45 44 42 41 40 40 41 42 43 42 43 44 44 44 44 44 44 46 47 48 49 50 50 51 51 50 49 49 51 53 55 57 57 56 56 58 58 60 62 63 65 68 70 72 73 74 75 76 78 80 82 86 90 93 96 100 103 107 111
87 85 84 83 81 80 78 76 74 72 70 68 67 65 64 63 62 61 59 56 53 53 53 51 48 46 44 42 41 39 38 39 40 42 41 41 41 42 43 43 43 43 43 45 47 48 48 49 50 50 50 49 48 49 51 53 55 56 55 55 56 57 58 59 62 63 64 66 68 70 72 73 74 75 76 78 80 83 86 89 93 97 100 104 107
83 82 80 79 78 76 75 73 71 69 67 66 64 63 61 60 60 59 57 55 52 52 52 50 47 44 42 41 40 38 37 38 40 41 40 39 39 41 42 42 42 42 42 44 46 47 48 48 49 49 48 47 48 50 51 53 55 54 53 54 56 57 57 59 61 62 63 64 66 69 71 72 73 74 74 76 79 81 83 86 89 93 97 101 104
80 78 77 76 75 74 72 70 68 66 64 63 62 60 59 57 57 57 56 53 51 51 51 48 45 43 41 40 39 38 37 38 39 40 39 38 38 40 41 41 41 42 42 44 46 46 47 48 48 48 47 47 48 50 52 53 54 51 51 55 56 55 57 59 61 62 62 63 65 67 69 70 71 72 73 75 77 79 81 83 86 90 94 97 101
77 76 75 74 72 71 69 68 65 63 61 60 59 58 57 56 55 54 53 52 50 49 49 47 44 42 40 39 38 38 37 37 38 39 38 37 37 39 40 40 41 42 42 44 45 46 46 47 47 46 46 47 49 51 52 52 51 50 51 55 55 54 56 58 60 61 62 62 63 65 67 68 69 71 72 74 76 78 80 81 83 86 90 94 98
75 74 72 71 70 68 67 65 63 61 59 57 57 56 55 55 53 52 51 49 48 47 46 45 43 41 39 39 38 37 37 37 38 38 37 37 37 39 39 39 40 42 42 44 45 45 46 46 46 45 46 48 50 51 51 50 50 49 51 54 54 54 55 57 59 61 61 61 62 64 65 66 68 69 71 72 74 76 78 80 81 83 86 90 94
74 72 70 69 67 66 65 63 61 59 57 56 55 54 53 53 52 50 48 48 46 45 45 44 42 40 39 38 38 38 37 37 38 38 37 36 37 38 38 39 40 42 43 43 45 45 45 45 45 45 47 49 50 50 49 49 49 50 51 52 52 53 54 57 59 60 60 61 61 62 63 64 66 68 69 71 73 75 76 78 79 80 82 86 89
72 71 69 68 66 65 63 62 60 58 56 54 53 52 52 51 50 48 47 46 45 43 43 43 41 40 39 38 38 38 37 37 38 38 36 36 37 37 38 39 41 42 43 43 44 45 45 45 45 47 48 50 49 49 49 49 49 49 50 50 51 53 54 57 58 59 60 60 59 59 61 62 64 66 68 70 72 73 74 75 77 78 80 82 85
70 69 68 66 65 63 61 60 58 57 55 53 51 50 50 50 49 47 45 44 43 42 42 41 40 39 39 38 38 38 38 38 38 37 37 36 37 37 38 39 41 42 43 43 44 44 45 46 47 48 49 49 48 48 48 48 49 49 49 50 51 52 54 56 57 58 59 58 58 58 59 61 62 64 67 69 71 71 72 73 75 76 78 80 82
69 68 66 65 63 62 60 58 57 56 54 52 50 49 48 48 47 46 44 44 42 41 41 41 40 39 39 38 38 38 38 38 38 37 37 37 37 37 38 40 41 42 43 43 44 44 46 47 48 48 48 48 48 48 49 49 49 49 49 49 50 52 53 55 56 57 58 57 57 57 58 59 60 63 66 69 70 70 70 71 73 74 75 77 79
67 66 65 64 62 61 59 57 56 55 53 52 50 49 48 47 46 45 43 43 42 41 40 40 40 39 39 38 38 39 38 38 37 37 38 37 37 38 39 40 41 42 43 43 44 45 46 47 48 48 48 48 48 49 49 49 49 49 48 49 50 51 52 54 55 56 57 56 56 56 57 58 59 61 65 68 69 68 68 69 70 71 72 74 77
66 65 64 63 62 60 59 57 55 54 53 52 51 49 47 46 46 44 42 42 42 41 39 40 40 39 39 39 39 39 38 38 37 38 38 38 38 38 39 40 41 42 42 43 44 46 47 48 48 48 48 49 49 50 49 49 49 49 49 49 50 50 51 52 53 55 56 55 54 55 56 57 58 60 63 66 67 67 67 67 68 69 70 72 74
64 64 63 62 61 59 58 57 55 54 52 51 51 50 47 45 45 44 42 41 41 40 39 39 39 39 39 39 39 38 38 38 38 38 39 39 39 39 40 40 41 41 42 43 44 46 47 48 49 49 49 50 50 49 49 49 49 49 49 49 50 50 50 51 52 53 54 54 53 53 54 55 57 58 60 63 65 65 65 65 66 68 69 70 71
62 62 61 61 60 58 57 56 55 53 52 51 50 50 48 45 43 43 42 41 40 40 39 39 39 39 38 39 38 38 39 38 38 39 39 40 40 40 40 40 41 41 42 44 45 47 48 49 49 49 50 50 49 49 49 49 49 49 49 50 50 50 50 51 51 52 52 52 53 53 53 54 55 56 58 60 62 63 63 64 65 66 68 68 69
61 60 60 59 58 57 56 54 53 52 51 50 49 49 48 46 43 41 41 40 40 40 39 38 38 38 38 38 38 38 39 39 39 39 40 40 41 41 40 41 41 42 43 45 46 48 49 49 49 50 50 50 49 49 49 49 49 49 50 50 50 50 51 50 50 51 51 52 52 52 52 52 53 55 56 58 60 61 62 62 62 64 66 66 67
60 58 58 57 56 55 54 53 52 50 49 48 48 47 47 46 43 41 40 39 39 39 38 38 37 38 38 38 38 38 38 39 39 40 40 41 41 41 41 41 42 43 44 46 47 48 48 49 49 50 50 50 50 50 50 50 49 50 50 50 50 51 50 50 50 51 51 51 51 51 52 52 53 54 55 56 58 59 60 60 60 61 63 65 65
59 57 56 55 54 54 52 51 51 50 48 47 47 47 46 45 42 40 39 38 38 38 38 37 37 37 38 38 39 38 38 38 39 40 41 42 42 42 42 43 44 44 45 47 48 48 48 49 50 50 51 51 51 51 50 50 50 50 50 50 51 50 50 50 50 51 51 50 50 51 51 52 52 52 53 54 55 57 58 58 58 58 60 62 63
59 57 55 54 52 52 51 50 49 49 47 46 45 46 46 45 42 40 38 37 37 38 38 37 36 37 38 38 38 38 38 38 39 40 41 42 42 43 44 44 45 45 46 47 47 47 48 50 51 51 51 51 51 51 51 50 50 50 50 50 50 50 50 50 50 50 50 50 50 50 50 51 51 52 52 52 53 54 55 56 56 56 58 59 60
59 58 56 54 53 51 50 48 47 47 46 45 45 44 44 44 43 40 38 37 37 37 37 37 37 37 38 38 38 38 38 38 39 39 40 42 43 44 44 45 45 45 46 47 47 48 49 50 51 51 51 51 51 51 51 51 50 50 50 50 50 50 50 50 50 50 50 50 50 49 49 50 51 51 51 51 52 52 53 54 54 54 55 57 58
59 58 57 55 54 52 50 49 47 45 45 44 44 43 43 44 43 41 38 38 37 37 37 37 37 37 38 38 37 38 38 38 38 39 41 42 43 43 44 45 46 46 46 47 47 48 49 50 50 51 51 51 51 51 51 51 50 50 49 49 49 49 49 49 49 49 50 50 49 49 49 49 49 50 50 50 50 50 51 52 52 53 53 54 56
59 57 56 55 53 52 51 50 48 46 44 43 43 43 43 43 43 41 39 38 38 37 37 38 38 37 37 37 38 38 39 39 39 39 41 43 43 43 44 46 46 46 46 47 47 48 48 49 50 50 51 51 51 51 51 50 50 49 49 48 49 49 49 49 49 49 49 49 49 49 48 48 49 49 49 49 49 49 49 50 50 51 52 52 53
60 58 56 54 52 51 50 49 48 46 45 43 42 42 42 42 42 42 40 39 38 38 38 38 38 38 37 38 38 38 39 39 39 40 41 42 43 43 44 46 46 46 46 46 47 47 48 48 49 50 51 51 51 51 51 50 49 49 48 48 48 48 48 48 48 49 49 49 49 49 48 48 48 48 48 49 49 48 48 48 49 49 50 51 51
58 57 56 54 52 50 49 48 47 46 45 43 42 41 40 41 41 41 40 40 39 39 39 39 39 38 38 38 38 38 39 39 40 40 41 42 42 43 45 46 46 46 46 46 46 47 47 48 49 49 50 51 51 51 50 50 49 48 48 47 47 47 48 47 48 48 48 49 49 48 48 48 48 48 48 48 48 47 47 47 47 48 48 49 50
55 55 54 53 52 50 48 47 46 45 44 43 42 41 40 40 40 40 40 39 39 39 39 39 39 39 39 39 39 39 38 39 40 40 40 41 41 43 45 46 46 46 45 45 46 47 47 47 48 49 50 50 51 51 51 50 49 48 47 47 46 47 47 47 47 47 48 48 48 48 48 48 48 47 47 47 47 47 46 46 46 47 47 48 48
53 52 51 50 50 49 48 46 45 44 43 43 42 41 40 39 40 40 39 39 38 38 38 39 40 40 40 40 39 39 39 39 40 41 41 40 40 42 45 46 46 46 45 45 45 46 46 47 48 48 49 50 50 50 50 50 49 48 47 46 46 46 46 46 47 47 47 48 48 48 48 48 47 47 47 47 47 47 46 46 46 46 46 47 47
52 51 49 48 47 47 46 46 44 43 42 41 41 40 40 39 39 39 39 39 38 38 38 38 39 40 40 40 40 40 40 40 40 41 41 41 41 42 44 46 47 47 46 46 45 46 46 47 47 48 49 49 50 50 50 49 48 48 47 46 46 45 45 46 46 46 47 47 48 48 48 48 47 47 47 47 47 47 46 46 46 46 46 46 47
52 50 49 47 45 44 44 44 43 42 41 40 40 40 39 38 38 38 38 38 38 37 37 38 39 39 40 40 40 40 40 41 41 42 42 42 42 42 43 46 47 48 48 47 47 46 46 47 47 48 48 49 49 50 50 49 49 48 47 46 46 45 45 45 46 46 47 47 48 48 48 48 47 47 47 46 47 47 46 46 46 46 46 46 46
52 51 49 47 46 44 43 42 42 41 40 39 39 39 39 38 37 37 37 38 38 37 37 37 38 39 39 40 40 41 41 41 42 43 44 44 43 43 44 45 47 49 49 49 49 48 48 48 47 48 48 49 49 49 50 49 49 48 48 47 46 46 45 45 45 46 46 47 48 48 48 48 47 47 47 47 46 46 46 46 46 46 46 46 46
52 51 49 48 46 44 43 41 40 40 39 38 38 37 38 38 38 37 36 37 37 37 37 37 38 38 39 40 40 40 41 42 42 43 44 45 45 44 44 45 47 49 50 51 51 50 50 49 49 49 49 49 49 49 50 50 49 49 49 48 47 46 46 46 46 46 46 47 48 48 48 48 47 47 47 47 47 46 46 46 46 46 46 46 46
50 49 48 47 46 44 43 41 40 39 38 37 37 36 36 37 37 37 36 36 36 37 37 37 37 38 39 39 40 40 41 42 42 43 44 45 45 45 45 45 47 48 50 51 52 52 52 52 51 50 50 50 50 50 50 50 50 50 49 49 48 47 47 46 46 46 46 47 47 48 48 48 48 47 47 47 47 46 46 46 46 46 46 46 46
49 48 47 46 45 43 42 41 40 38 37 37 36 35 34 35 35 36 36 36 35 36 37 37 37 38 39 39 40 40 40 41 42 43 44 44 45 45 45 46 46 47 49 50 52 53 54 54 53 53 52 52 52 51 51 51 51 51 51 50 50 49 48 47 47 47 47 47 47 48 48 48 48 48 48 47 47 47 47 47 47 46 46 46 46
49 48 47 46 44 43 42 41 40 38 37 36 35 35 34 33 33 34 35 36 35 35 36 36 37 37 38 39 40 40 41 41 41 42 43 44 45 45 46 46 46 47 48 49 51 52 54 54 55 55 55 54 54 53 53 53 52 52 52 52 51 51 50 49 48 48 48 48 48 48 49 49 49 49 48 48 48 48 47 47 47 47 47 46 46
50 48 47 46 44 43 42 41 40 39 37 36 35 34 34 33 33 33 34 35 35 35 35 36 36 37 38 39 40 41 41 41 41 42 43 44 44 45 46 46 47 47 48 49 50 51 52 54 55 56 56 56 56 55 55 55 54 54 54 53 53 53 52 51 50 50 49 49 49 49 49 49 49 49 49 49 49 49 48 48 48 48 48 47 47
50 49 48 47 45 44 42 41 40 39 38 36 35 34 33 33 32 32 33 33 34 35 35 35 35 36 37 38 39 40 41 42 42 42 43 43 44 45 46 46 47 48 48 49 49 50 51 52 53 55 56 57 57 57 57 56 56 56 56 55 55 54 54 53 52 52 51 51 50 50 50 50 50 50 50 50 50 50 50 50 50 49 49 49 48
Wind_Direction
304 305 306 306 307 307 307 306 306 305 305 304 303 302 302 302 301 300 300 299 296 294 293 291 291 291 291 291 290 290 288 286 284 281 279 277 274 272 270 268 266 265 264 263 263 262 261 260 260 259 258 256 254 252 249 246 243 241 240 239 238 236 236 235 234 231 228 227 227 226 223 222 222 221 221 221 220 220 220 220 219 219 219 220 220
306 306 307 307 307 307 306 306 305 305 304 304 303 302 302 302 301 300 299 298 295 294 292 291 291 291 291 290 290 289 287 285 283 281 278 275 273 271 269 267 265 264 263 262 261 261 260 259 259 258 256 254 253 251 248 244 241 240 238 238 238 237 236 235 234 232 229 226 226 226 224 222 222 221 221 220 220 220 220 220 219 219 219 220 220
306 307 307 307 306 306 306 306 305 305 304 304 303 303 302 302 300 299 298 296 294 293 292 292 292 291 290 289 289 288 286 284 282 279 277 274 272 270 268 266 264 263 262 261 260 259 259 258 258 257 255 253 252 250 247 243 240 239 238 237 238 237 236 236 235 233 230 227 226 226 225 223 222 221 221 220 220 219 219 219 219 219 219 220 220
307 306 306 306 306 306 306 305 305 305 304 304 304 304 303 301 300 299 298 295 293 293 293 292 292 291 290 289 288 287 285 283 281 278 276 274 272 270 268 265 264 262 261 260 259 258 257 257 256 255 253 252 250 248 245 242 239 238 237 237 237 236 236 236 235 233 231 228 226 226 226 224 222 221 221 220 220 219 219 219 219 219 219 220 220
306 306 306 306 306 306 305 305 305 305 305 304 304 304 303 301 300 299 297 295 293 293 292 292 292 291 289 288 287 286 284 282 280 278 276 273 271 269 267 265 263 261 259 258 257 257 256 255 255 254 252 251 249 247 244 241 239 238 237 236 236 236 236 236 235 234 231 229 226 225 226 225 223 222 221 220 220 219 219 219 219 219 219 219 219
306 305 306 306 306 305 305 305 305 305 305 304 304 303 302 300 299 299 297 294 293 293 292 292 291 290 289 287 286 285 283 282 280 278 275 273 270 268 266 265 262 259 257 256 255 255 255 254 253 252 251 249 248 245 243 240 238 237 236 235 235 235 235 236 236 234 232 230 227 225 226 226 224 222 222 221 220 219 219 219 219 219 219 219 219
305 306 306 306 305 305 305 305 305 305 305 304 303 303 301 299 299 298 296 294 294 293 292 292 291 290 289 287 285 284 282 280 279 277 275 272 269 267 265 263 260 257 255 254 254 254 253 253 252 251 250 248 247 244 241 239 237 237 236 234 233 234 234 235 235 234 233 230 228 225 225 226 225 223 222 222 221 220 219 219 219 219 219 219 219
306 306 306 305 305 305 305 305 305 305 304 304 303 301 300 299 298 298 296 294 294 293 292 292 291 290 289 287 285 283 281 279 277 275 273 271 268 266 264 261 258 255 254 253 253 252 252 251 250 249 248 247 246 243 240 238 237 237 235 234 233 233 233 234 235 234 233 231 228 226 225 225 226 224 222 222 221 220 220 220 219 219 219 219 219
305 305 305 305 305 305 305 305 305 305 304 303 302 301 299 298 298 298 296 294 294 293 293 292 291 290 289 287 284 282 281 278 276 275 273 270 268 265 262 260 257 255 253 252 252 251 250 249 248 247 246 245 244 242 240 238 237 237 235 233 232 232 232 233 234 234 232 231 229 227 225 224 226 225 223 222 221 221 220 220 220 219 219 220 220
305 305 305 305 305 305 305 305 305 304 303 302 301 300 299 299 299 298 297 295 295 294 293 292 291 290 288 286 284 282 280 278 275 274 271 269 266 263 260 258 256 255 253 252 251 250 248 247 246 246 245 244 243 241 239 238 238 237 235 233 233 232 231 232 233 233 232 231 230 228 225 224 225 226 224 222 221 221 221 220 220 220 220 220 220
305 305 305 304 305 305 305 305 304 304 303 302 301 300 299 299 299 299 297 296 296 295 294 292 291 289 287 285 283 281 279 277 275 272 269 266 263 261 259 257 256 254 253 252 250 249 247 246 245 245 244 243 241 240 239 239 238 237 235 234 233 232 231 231 232 232 232 231 230 229 226 224 224 225 225 223 222 221 221 220 220 220 220 220 220
304 304 304 304 304 304 304 304 304 303 302 302 301 300 300 300 299 298 297 296 296 295 293 292 291 288 286 284 282 280 277 275 273 271 267 264 262 260 259 257 256 254 253 251 249 247 246 244 244 243 243 242 241 240 239 238 238 237 235 234 233 232 231 230 231 232 232 231 230 229 228 225 223 224 225 225 223 222 221 221 221 221 220 220 220
304 304 304 304 304 304 304 304 303 302 302 301 301 301 300 300 299 298 296 295 295 294 292 292 290 287 285 282 280 278 276 274 272 269 266 263 262 260 259 257 256 254 252 250 248 247 245 244 242 242 242 241 240 240 239 238 237 236 235 234 233 232 231 230 230 231 231 231 231 230 229 226 224 223 225 225 224 222 222 221 221 221 221 220 221
304 304 304 304 304 304 303 303 302 302 301 301 301 300 300 299 298 297 295 295 294 293 291 291 289 286 283 281 279 277 275 273 270 268 265 263 261 261 259 257 255 253 251 249 248 246 244 243 242 241 240 240 240 240 239 238 236 236 235 235 233 232 230 229 229 230 231 231 231 231 230 228 225 223 223 225 225 224 223 222 222 221 221 221 221
303 303 303 303 303 303 302 302 302 302 301 301 301 300 299 298 297 296 295 295 294 292 291 290 288 284 281 279 277 275 273 271 269 267 265 263 261 260 259 256 253 251 250 248 246 245 243 242 241 240 239 239 240 240 239 237 236 236 236 235 234 232 231 229 229 229 231 231 232 231 231 229 227 225 223 224 225 225 224 223 223 222 222 221 221
303 303 303 302 302 302 301 301 301 301 301 301 300 300 299 298 297 296 295 294 293 291 290 289 286 283 280 278 275 273 271 270 268 266 264 263 261 259 257 255 251 249 249 247 245 243 242 241 240 240 239 239 240 239 238 237 236 236 237 236 235 233 231 230 229 229 230 231 232 232 231 230 229 227 225 224 224 225 225 225 224 223 223 222 221
302 302 302 302 301 301 301 301 301 301 301 301 300 299 299 297 296 296 294 293 292 291 289 288 285 282 279 276 274 273 271 269 267 265 264 262 260 258 256 254 250 248 246 246 244 242 241 241 240 240 240 239 239 238 237 236 236 236 237 237 236 234 233 231 230 229 229 230 231 232 231 231 230 228 227 225 224 224 225 226 225 225 224 223 222
302 302 302 302 302 302 302 302 302 301 301 301 300 299 298 296 295 294 293 292 291 289 288 287 284 281 279 276 273 272 270 268 266 264 263 261 259 257 255 252 250 247 245 244 243 241 240 240 239 239 240 239 239 238 236 236 236 236 237 237 236 235 234 233 231 230 229 229 230 231 231 231 230 229 228 227 225 225 225 226 226 226 225 225 223
304 303 303 303 303 302 302 302 302 302 301 300 299 298 297 296 294 293 292 291 290 288 286 285 283 280 278 276 273 271 269 268 265 263 261 260 258 256 254 251 249 246 243 242 242 240 239 239 239 239 240 239 238 237 236 236 236 237 237 237 236 236 235 234 234 232 230 229 230 230 231 231 231 230 229 228 227 226 225 225 226 226 226 226 225
305 305 305 304 304 303 303 302 302 301 300 299 298 297 296 294 293 292 291 291 289 286 285 284 282 280 278 275 273 270 268 267 264 262 260 258 257 255 253 250 248 245 242 241 241 240 239 239 239 239 239 239 237 236 236 236 236 237 237 237 236 235 235 235 235 234 233 231 230 230 231 231 231 230 230 229 229 228 227 225 225 226 227 227 227
307 307 306 305 305 304 303 302 302 301 300 298 297 296 295 293 292 291 290 290 288 285 284 283 281 279 277 275 272 270 268 266 264 262 259 257 255 254 251 249 247 244 241 240 240 240 239 239 239 239 239 238 237 236 236 236 237 236 236 237 236 235 235 236 236 236 234 233 232 232 231 231 231 231 230 230 229 229 228 226 225 226 227 227 227
308 308 307 306 305 304 303 302 302 300 299 298 297 296 294 293 291 290 289 288 286 284 283 282 280 278 276 274 272 269 267 265 263 261 259 256 253 252 250 248 246 243 241 240 239 239 239 239 239 239 238 237 236 236 236 237 237 236 235 236 237 236 236 236 237 237 236 235 234 234 233 232 231 230 230 230 230 230 230 228 227 226 226 227 227
309 308 307 306 305 304 303 303 302 300 299 298 297 295 294 293 291 290 288 286 284 283 282 280 279 277 275 273 271 268 266 264 262 260 258 255 252 251 249 247 244 242 240 239 239 239 239 239 239 238 237 236 236 236 236 237 237 236 235 236 236 236 236 237 238 238 237 236 235 234 234 234 233 232 231 231 231 231 230 230 229 228 227 226 227
309 308 307 307 306 305 304 303 302 301 300 299 297 295 294 292 291 290 288 286 284 282 281 279 278 276 274 272 269 266 264 263 261 258 256 254 252 250 248 246 244 242 240 239 238 238 238 239 238 237 237 236 236 236 237 237 237 236 235 236 236 237 237 237 238 238 237 236 235 235 235 235 235 234 233 232 232 231 231 231 230 229 229 228 227
309 308 308 307 307 306 305 304 303 302 300 299 297 295 294 292 291 290 288 285 283 282 280 278 276 275 274 271 268 265 263 261 259 257 255 253 251 249 248 245 243 241 239 238 238 238 238 237 237 236 236 236 236 237 237 237 237 237 236 236 236 236 237 237 238 238 238 237 236 235 235 235 235 236 236 235 234 232 232 231 231 230 230 230 229
309 308 308 307 306 305 305 304 303 302 300 299 297 295 293 292 291 290 288 286 284 281 279 277 275 274 273 271 268 264 262 260 258 256 253 251 250 248 246 244 242 241 239 238 237 237 237 236 236 235 236 236 237 237 238 238 238 237 236 236 236 236 237 238 239 239 239 238 236 235 235 235 235 236 237 237 236 234 233 232 232 231 231 231 231
308 307 307 306 305 305 304 304 304 302 301 300 298 296 294 292 291 290 288 286 284 281 279 276 274 273 272 270 267 264 261 259 257 255 252 250 248 247 245 244 242 240 238 237 236 236 236 236 235 235 236 236 236 237 237 237 238 237 237 236 236 236 237 238 239 239 239 239 237 236 236 235 235 236 238 238 238 236 235 234 233 233 232 232 232
307 307 306 306 305 305 305 304 303 303 302 301 299 297 296 294 292 290 288 285 283 281 278 275 273 272 270 268 266 263 260 258 256 255 252 250 247 246 244 243 241 240 238 236 235 235 235 235 235 235 235 235 236 236 237 237 238 238 237 237 236 236 236 237 239 240 240 240 238 237 237 236 235 236 237 238 238 237 237 236 235 234 233 233 232
307 307 306 306 306 305 305 304 304 303 303 302 301 299 297 295 293 290 288 285 282 279 276 274 272 270 269 267 264 262 259 257 255 253 251 249 246 245 243 242 240 239 238 236 235 234 235 235 235 234 234 234 235 236 236 237 238 238 238 237 237 237 237 238 238 240 241 241 239 238 238 237 236 236 237 238 239 238 238 237 237 236 235 234 233
308 307 306 306 305 305 304 304 304 304 303 302 301 300 298 296 293 291 288 284 281 278 275 272 270 268 267 266 264 262 259 256 253 251 250 248 246 244 242 241 240 238 237 235 234 234 234 234 234 234 234 234 235 235 236 237 237 238 238 238 238 237 237 238 238 239 241 241 240 239 238 237 236 236 237 238 239 239 239 238 238 237 236 235 234
308 307 306 305 305 304 304 303 303 303 302 301 300 299 298 296 293 290 287 284 280 277 274 270 268 267 266 265 264 261 258 255 253 250 248 247 245 243 241 241 239 238 236 234 233 233 233 233 234 234 234 235 235 235 235 236 236 237 237 237 238 238 238 238 239 239 240 241 241 239 238 237 237 237 237 239 240 240 240 239 239 239 238 237 235
309 308 306 305 304 303 302 301 301 300 300 299 298 297 297 295 293 290 287 284 280 277 273 269 267 266 265 264 263 261 258 255 253 250 248 246 245 243 241 239 238 237 235 234 233 233 233 233 233 234 234 235 235 235 235 235 236 236 236 237 238 238 238 238 239 240 240 241 241 240 239 237 237 237 238 239 240 241 241 240 239 239 239 238 236
310 308 307 305 304 302 301 299 298 297 297 296 295 295 294 294 293 290 287 283 280 276 273 269 267 265 265 263 262 261 259 256 253 251 249 247 245 243 240 238 237 236 235 234 233 232 232 233 233 233 233 234 235 235 235 236 236 236 236 237 238 239 239 239 239 239 240 240 240 240 240 239 238 238 238 239 240 241 241 241 239 239 239 239 237
310 308 307 305 303 302 300 298 297 296 294 293 292 292 291 291 291 289 286 283 280 276 273 270 267 265 264 263 263 262 260 257 254 251 249 248 246 244 241 238 236 235 234 234 234 233 232 232 232 232 232 233 234 235 235 236 236 236 236 237 238 239 239 240 240 240 240 240 240 240 240 240 239 239 239 239 240 241 241 241 240 239 239 239 238
311 309 308 306 304 302 300 299 297 295 293 292 290 289 289 289 289 287 285 283 280 277 274 271 267 265 264 263 262 261 260 257 254 252 251 249 247 245 242 240 237 236 235 234 234 233 232 232 232 232 232 233 234 234 235 236 236 236 236 237 237 238 239 240 240 241 241 240 240 240 240 240 241 240 240 239 239 240 240 241 240 239 239 239 239
312 311 310 308 306 304 302 300 298 296 294 292 290 288 287 287 287 286 285 282 280 277 275 272 268 265 264 263 262 261 260 257 254 252 250 249 248 246 245 243 240 238 236 235 234 233 232 232 232 232 232 233 233 234 235 236 236 237 237 237 237 238 239 240 240 241 241 241 240 240 240 240 241 241 241 240 239 239 239 240 240 239 239 239 239
313 312 311 310 308 306 305 303 300 298 296 294 292 289 287 286 286 285 284 282 279 277 274 272 269 266 264 263 261 260 259 257 255 251 249 247 247 247 246 245 243 240 238 236 235 233 233 233 233 233 233 233 233 234 235 236 236 237 237 238 238 238 238 239 240 241 241 241 241 240 240 240 240 241 241 241 240 239 239 239 239 239 238 238 238
313 312 311 310 309 308 306 305 303 301 298 296 293 291 289 287 286 285 283 281 278 276 274 271 269 267 264 262 259 258 257 257 255 251 248 246 245 245 244 244 244 242 241 239 237 235 234 233 233 233 233 233 233 234 235 236 237 237 237 238 238 238 238 239 240 241 242 242 242 241 241 240 240 240 241 241 240 239 239 239 239 239 238 238 237
313 312 311 310 309 307 306 305 303 302 299 297 294 292 289 287 286 284 282 280 277 275 273 271 269 267 264 261 258 257 256 255 254 252 249 247 245 243 243 243 243 243 242 240 239 237 235 234 234 233 233 233 234 234 235 236 236 237 237 238 238 239 239 239 239 240 241 242 242 242 241 241 240 240 240 240 240 240 239 238 238 238 238 238 237
313 312 311 310 309 307 306 304 303 302 300 298 295 292 290 287 285 284 282 280 277 274 272 270 268 266 263 261 258 256 255 254 253 252 250 248 246 243 242 242 243 242 242 241 240 239 237 236 235 234 234 234 234 235 235 236 236 236 237 237 238 239 239 239 240 240 240 241 241 242 241 241 240 240 240 240 240 240 239 239 238 238 238 238 237
313 312 311 310 308 307 306 304 303 301 300 298 296 293 290 287 285 283 282 279 277 274 272 269 267 265 263 260 258 256 254 253 252 251 250 248 246 243 242 242 242 242 241 241 241 240 239 238 236 235 234 234 234 235 236 236 236 236 236 237 237 238 239 240 240 240 240 240 241 241 241 240 240 240 240 240 240 240 240 239 238 238 237 237 237
313 312 311 310 308 307 305 304 302 300 299 297 295 293 291 288 285 283 282 280 277 274 272 269 266 264 262 260 258 256 254 252 251 250 249 247 245 243 242 241 241 240 240 240 240 240 240 240 238 237 236 235 235 235 236 236 236 236 236 236 236 237 238 239 240 240 240 240 240 240 240 239 239 240 240 240 240 240 240 239 238 238 237 237 237
315 313 312 310 308 307 305 303 302 300 298 297 295 293 291 289 286 284 282 280 278 275 272 269 267 264 262 260 258 256 253 251 249 248 247 246 244 242 241 240 239 238 238 238 238 238 239 239 239 239 238 237 236 236 236 236 236 236 236 235 236 237 238 238 239 239 239 239 239 239 239 239 239 239 239 240 240 240 240 239 239 238 237 237 236
316 315 314 312 310 308 306 304 302 301 299 297 295 293 291 289 286 284 282 280 278 275 273 270 268 265 263 261 259 256 254 251 249 247 246 245 243 241 240 239 239 237 236 235 235 235 236 237 238 238 238 238 238 237 236 236 236 236 235 235 235 236 237 238 238 239 239 239 239 238 238 238 238 238 238 239 239 240 240 240 239 238 238 237 237
318 317 316 315 313 311 309 306 304 302 300 297 295 293 292 289 287 284 281 280 278 275 273 270 268 266 264 262 260 257 255 252 249 247 246 245 243 240 239 238 238 237 236 234 233 233 233 233 234 236 237 237 238 237 237 237 236 236 235 235 235 235 236 236 237 238 239 239 239 238 238 238 238 238 238 238 239 239 240 240 240 239 238 238 237
319 318 317 316 315 313 311 309 306 303 301 298 295 293 291 290 288 285 282 279 278 276 273 270 268 266 264 262 260 257 255 253 250 248 246 245 244 242 240 238 237 237 236 234 233 232 231 231 231 232 234 235 236 236 237 236 236 236 236 235 235 235 235 235 236 237 237 238 239 239 238 238 238 238 238 238 238 238 239 239 240 239 239 238 238
319 319 317 317 316 314 313 311 308 305 303 300 296 293 290 288 287 285 283 279 277 275 274 271 268 266 264 262 260 258 255 253 251 248 246 245 244 244 242 241 239 238 237 235 234 232 231 231 230 230 231 232 233 234 235 235 235 235 235 235 235 234 234 234 235 235 236 237 238 238 238 238 238 238 238 238 238 238 238 238 239 239 239 239 238
321 320 319 318 317 316 314 312 310 308 305 302 299 295 291 287 285 283 281 279 277 274 273 271 268 266 264 262 261 258 256 254 251 249 247 245 244 243 243 242 242 241 239 237 236 234 233 231 230 230 229 230 230 231 232 233 234 234 234 234 234 234 234 233 234 234 235 236 237 237 238 238 238 238 237 237 237 237 237 238 238 239 239 239 239
323 322 321 320 319 318 316 314 312 310 308 305 302 298 295 290 286 282 280 278 276 273 271 269 267 265 263 262 260 259 257 254 252 250 248 246 244 243 242 241 242 242 242 241 239 237 235 233 232 231 230 230 229 230 230 231 232 233 233 233 233 233 233 233 233 233 234 235 235 236 237 237 237 237 237 237 237 237 237 238 238 238 239 239 239
324 323 322 321 319 318 317 315 314 312 310 308 305 302 298 294 290 285 281 278 276 273 270 268 266 264 262 261 259 258 257 255 253 251 249 248 246 244 242 241 240 240 242 242 242 241 239 237 235 233 232 231 230 230 230 230 231 231 232 232 233 233 233 232 232 232 232 233 234 235 235 236 236 237 237 237 237 238 238 238 238 238 238 239 239
324 324 323 322 320 319 318 316 314 313 311 309 307 304 301 297 293 289 284 280 277 274 271 269 266 264 262 261 259 258 256 255 254 252 250 248 247 246 244 242 241 239 239 240 241 242 242 241 239 237 235 234 233 232 231 231 231 231 231 232 232 232 232 232 232 232 232 232 233 234 234 235 236 236 236 236 237 237 238 239 239 239 239 239 239
Height
10205 10196 10187 10178 10170 10162 10153 10145 10138 10131 10125 10118 10109 10099 10093 10088 10080 10071 10063 10057 10050 10044 10039 10033 10029 10026 10023 10020 10017 10015 10014 10011 10009 10008 10008 10008 10007 10007 10009 10010 10010 10011 10013 10015 10017 10019 10021 10022 10023 10026 10030 10034 10034 10037 10042 10046 10048 10050 10053 10057 10061 10065 10070 10074 10078 10086 10096 10102 10106 10113 10123 10131 10139 10148 10158 10167 10177 10186 10195 10205 10217 10226 10234 10245 10257
10187 10178 10169 10160 10152 10144 10136 10128 10120 10114 10108 10103 10094 10084 10076 10072 10066 10057 10050 10043 10035 10030 10025 10019 10015 10013 10009 10006 10003 10001 10000 9998 9995 9994 9994 9993 9993 9994 9996 9997 9998 9998 10000 10003 10005 10007 10009 10010 10011 10014 10019 10022 10023 10025 10030 10034 10037 10039 10042 10046 10049 10053 10058 10062 10067 10074 10083 10091 10095 10100 10109 10118 10126 10135 10144 10153 10162 10172 10182 10192 10202 10211 10220 10231 10242
10168 10159 10151 10144 10135 10127 10119 10112 10104 10097 10090 10085 10079 10069 10060 10056 10051 10044 10037 10029 10023 10017 10012 10005 10002 9999 9995 9992 9990 9987 9986 9984 9983 9981 9980 9979 9980 9981 9983 9985 9986 9987 9988 9990 9993 9995 9997 9998 9999 10003 10007 10010 10011 10014 10019 10023 10026 10028 10032 10035 10038 10042 10046 10050 10055 10061 10070 10079 10085 10089 10096 10105 10113 10122 10131 10139 10148 10158 10168 10178 10187 10196 10206 10216 10228
10151 10142 10134 10127 10119 10111 10103 10096 10089 10081 10073 10067 10063 10056 10046 10039 10035 10030 10023 10016 10009 10005 9999 9993 9989 9986 9982 9979 9976 9974 9972 9971 9970 9968 9967 9967 9968 9970 9970 9972 9974 9976 9977 9978 9981 9983 9986 9987 9988 9992 9996 9998 10000 10003 10007 10012 10015 10018 10022 10025 10027 10031 10035 10039 10044 10050 10057 10066 10073 10078 10083 10091 10101 10109 10117 10126 10135 10145 10155 10164 10173 10182 10191 10202 10214
10133 10124 10117 10110 10102 10095 10087 10080 10073 10067 10058 10051 10046 10041 10034 10026 10021 10016 10009 10003 9997 9992 9986 9981 9976 9973 9969 9966 9964 9962 9960 9958 9957 9956 9956 9957 9957 9958 9958 9960 9962 9964 9966 9967 9969 9972 9974 9976 9978 9981 9984 9987 9989 9992 9997 10001 10005 10008 10012 10015 10018 10021 10024 10028 10033 10039 10046 10053 10061 10067 10072 10078 10088 10097 10104 10112 10122 10131 10141 10150 10158 10167 10176 10188 10200
10116 10107 10100 10093 10086 10079 10072 10064 10057 10051 10044 10037 10031 10026 10020 10014 10008 10003 9995 9989 9985 9979 9974 9969 9964 9960 9957 9954 9952 9949 9948 9947 9945 9945 9945 9946 9946 9946 9947 9949 9951 9953 9954 9956 9958 9960 9963 9965 9967 9970 9973 9975 9978 9982 9987 9991 9995 9998 10002 10006 10009 10011 10014 10018 10022 10028 10035 10041 10049 10056 10061 10066 10075 10084 10092 10100 10109 10118 10127 10136 10144 10152 10162 10173 10185
10099 10091 10083 10076 10069 10062 10056 10049 10042 10035 10029 10022 10017 10012 10006 10000 9996 9990 9982 9976 9972 9967 9962 9958 9953 9948 9945 9943 9940 9938 9937 9935 9935 9934 9934 9935 9935 9935 9936 9938 9939 9941 9942 9944 9947 9950 9952 9955 9958 9960 9963 9965 9968 9972 9977 9981 9984 9988 9992 9996 9999 10001 10004 10008 10013 10018 10024 10030 10037 10045 10051 10055 10062 10072 10081 10088 10097 10105 10113 10121 10130 10138 10148 10159 10170
10081 10074 10067 10060 10053 10046 10040 10034 10027 10020 10014 10008 10002 9998 9993 9988 9983 9978 9970 9964 9960 9955 9949 9946 9941 9936 9934 9931 9928 9926 9925 9925 9924 9924 9924 9925 9925 9925 9925 9926 9928 9930 9932 9934 9937 9940 9942 9945 9948 9950 9953 9955 9958 9962 9966 9970 9973 9977 9982 9986 9989 9991 9995 9999 10004 10009 10014 10019 10026 10034 10041 10045 10051 10060 10069 10076 10083 10092 10099 10107 10117 10126 10135 10145 10156
10065 10058 10051 10044 10037 10031 10025 10019 10012 10005 9999 9994 9988 9984 9980 9975 9970 9964 9957 9951 9948 9943 9938 9935 9930 9925 9922 9920 9918 9916 9914 9914 9914 9914 9915 9915 9915 9915 9915 9915 9917 9919 9922 9924 9927 9930 9933 9935 9937 9940 9943 9946 9948 9952 9956 9959 9963 9967 9972 9976 9978 9981 9986 9991 9995 9999 10004 10009 10015 10023 10030 10036 10041 10048 10056 10064 10071 10078 10086 10095 10104 10113 10122 10132 10143
10049 10042 10035 10028 10021 10016 10010 10004 9998 9991 9985 9980 9974 9970 9966 9962 9956 9951 9944 9939 9935 9931 9926 9923 9919 9915 9911 9909 9907 9905 9904 9904 9904 9905 9905 9905 9905 9904 9904 9905 9907 9909 9912 9915 9918 9920 9923 9926 9928 9931 9934 9936 9939 9942 9945 9949 9953 9958 9962 9966 9968 9972 9978 9982 9985 9990 9995 10000 10006 10012 10020 10027 10031 10035 10043 10052 10059 10066 10074 10083 10091 10099 10109 10119 10129
10035 10027 10020 10013 10007 10002 9997 9991 9984 9977 9971 9966 9961 9956 9952 9948 9943 9938 9931 9926 9923 9918 9914 9912 9909 9904 9901 9899 9896 9895 9894 9894 9895 9895 9895 9894 9894 9893 9894 9896 9898 9900 9902 9905 9908 9911 9914 9917 9919 9922 9925 9927 9929 9932 9936 9940 9945 9949 9953 9955 9959 9963 9968 9973 9977 9981 9985 9991 9996 10002 10010 10017 10021 10024 10030 10040 10048 10054 10062 10071 10078 10085 10096 10106 10115
10019 10013 10006 9999 9994 9988 9983 9978 9971 9964 9957 9952 9947 9942 9938 9934 9930 9925 9919 9914 9911 9907 9903 9901 9898 9895 9891 9889 9886 9885 9884 9884 9885 9885 9884 9884 9883 9883 9885 9887 9889 9891 9893 9896 9899 9902 9905 9908 9910 9913 9915 9918 9920 9922 9927 9932 9937 9940 9943 9945 9949 9954 9959 9964 9968 9972 9976 9981 9987 9993 10000 10007 10013 10015 10019 10026 10035 10043 10050 10058 10065 10072 10083 10093 10101
10003 9998 9991 9985 9980 9975 9969 9963 9957 9951 9944 9939 9934 9928 9924 9920 9916 9912 9908 9903 9900 9896 9892 9890 9888 9885 9882 9879 9877 9875 9875 9875 9876 9875 9874 9874 9874 9874 9876 9879 9881 9882 9885 9888 9890 9893 9896 9899 9902 9904 9907 9909 9910 9913 9918 9924 9928 9930 9932 9935 9940 9946 9951 9955 9959 9963 9967 9972 9978 9984 9990 9997 10004 10007 10009 10014 10022 10031 10038 10046 10053 10060 10070 10080 10088
9988 9983 9977 9971 9965 9960 9955 9949 9943 9937 9931 9925 9920 9915 9911 9907 9903 9899 9896 9892 9889 9885 9882 9880 9878 9875 9872 9870 9868 9866 9866 9866 9866 9865 9864 9865 9865 9865 9867 9871 9873 9874 9876 9880 9882 9884 9887 9890 9893 9895 9898 9900 9902 9905 9910 9915 9918 9920 9922 9926 9932 9938 9943 9947 9951 9954 9958 9963 9969 9974 9980 9987 9994 9999 10001 10004 10010 10018 10027 10034 10041 10049 10057 10066 10075
9975 9969 9963 9957 9951 9945 9940 9934 9929 9923 9918 9912 9907 9902 9898 9894 9890 9887 9883 9880 9878 9874 9871 9870 9867 9865 9863 9861 9859 9858 9857 9857 9857 9856 9856 9856 9857 9857 9858 9862 9865 9866 9868 9871 9874 9876 9879 9881 9883 9886 9889 9891 9894 9898 9903 9906 9908 9910 9912 9917 9924 9930 9935 9939 9943 9946 9950 9954 9959 9965 9971 9977 9983 9989 9993 9996 10000 10007 10014 10021 10029 10036 10044 10054 10062
9962 9955 9949 9943 9937 9932 9927 9922 9916 9910 9905 9900 9894 9890 9885 9881 9878 9875 9872 9869 9867 9863 9860 9859 9858 9855 9854 9852 9850 9849 9849 9848 9848 9847 9847 9848 9849 9850 9850 9853 9857 9859 9860 9863 9866 9868 9870 9872 9875 9877 9880 9883 9887 9891 9895 9897 9899 9901 9903 9908 9915 9921 9926 9930 9934 9938 9942 9946 9951 9956 9961 9966 9972 9978 9983 9987 9991 9996 10002 10009 10016 10024 10033 10042 10050
9948 9942 9935 9929 9924 9918 9913 9908 9903 9897 9892 9887 9882 9877 9873 9869 9865 9863 9861 9858 9856 9853 9850 9849 9848 9846 9844 9843 9841 9840 9840 9840 9839 9838 9839 9840 9841 9842 9843 9845 9848 9851 9853 9855 9858 9860 9862 9864 9867 9869 9872 9875 9879 9884 9887 9889 9891 9893 9895 9901 9907 9912 9917 9922 9925 9930 9934 9938 9942 9947 9951 9956 9962 9967 9973 9978 9982 9986 9991 9998 10005 10013 10020 10028 10036
9932 9927 9921 9914 9908 9903 9898 9894 9889 9884 9879 9874 9870 9865 9861 9858 9854 9852 9850 9848 9846 9843 9840 9839 9838 9836 9835 9834 9833 9832 9832 9832 9830 9830 9831 9832 9833 9834 9835 9837 9840 9843 9846 9847 9849 9852 9854 9856 9859 9861 9864 9868 9872 9876 9878 9880 9883 9885 9888 9894 9898 9903 9908 9912 9916 9920 9925 9930 9934 9938 9942 9947 9952 9957 9963 9968 9973 9977 9982 9988 9994 10000 10006 10014 10023
9916 9910 9905 9899 9893 9888 9884 9880 9876 9872 9867 9862 9859 9855 9851 9847 9844 9841 9839 9837 9835 9833 9830 9829 9828 9827 9825 9824 9824 9823 9823 9823 9822 9821 9823 9824 9825 9826 9828 9830 9832 9835 9838 9839 9840 9843 9846 9848 9851 9854 9857 9861 9865 9867 9869 9872 9874 9877 9882 9887 9890 9894 9899 9902 9905 9910 9916 9922 9926 9930 9934 9938 9943 9948 9953 9958 9962 9967 9972 9978 9983 9988 9994 10001 10010
9901 9896 9890 9885 9879 9875 9871 9867 9864 9860 9856 9852 9848 9844 9841 9838 9833 9830 9828 9827 9825 9823 9821 9820 9819 9818 9816 9815 9815 9814 9814 9814 9814 9813 9815 9817 9818 9818 9820 9822 9825 9828 9830 9831 9832 9835 9838 9840 9843 9846 9850 9854 9857 9859 9862 9864 9866 9870 9876 9879 9881 9887 9891 9892 9895 9900 9906 9912 9917 9920 9925 9929 9934 9939 9944 9948 9952 9957 9962 9969 9973 9977 9983 9989 9996
9888 9883 9877 9872 9867 9863 9859 9855 9853 9849 9846 9842 9838 9834 9831 9828 9824 9820 9818 9817 9815 9813 9811 9810 9810 9809 9807 9806 9806 9806 9806 9806 9806 9806 9807 9809 9810 9811 9812 9815 9818 9820 9822 9823 9824 9827 9830 9832 9835 9839 9843 9847 9849 9851 9854 9856 9858 9864 9869 9870 9873 9879 9882 9884 9887 9891 9895 9901 9906 9910 9915 9920 9926 9930 9934 9938 9942 9946 9951 9958 9962 9967 9972 9977 9984
9876 9872 9866 9860 9856 9852 9848 9844 9842 9839 9835 9832 9828 9824 9820 9818 9815 9812 9809 9807 9806 9804 9802 9801 9800 9800 9798 9798 9798 9798 9798 9798 9798 9798 9800 9802 9802 9803 9805 9808 9810 9812 9814 9815 9816 9819 9822 9824 9828 9832 9836 9838 9840 9843 9846 9849 9852 9858 9861 9862 9866 9871 9874 9876 9879 9882 9886 9892 9897 9900 9905 9910 9916 9921 9925 9928 9932 9936 9940 9946 9951 9956 9961 9966 9972
9865 9861 9856 9851 9846 9842 9838 9834 9831 9828 9825 9821 9817 9813 9810 9807 9805 9803 9800 9798 9797 9795 9794 9792 9791 9791 9790 9789 9789 9790 9790 9790 9790 9791 9792 9794 9795 9795 9798 9801 9803 9804 9806 9807 9809 9811 9814 9817 9820 9824 9827 9830 9832 9835 9839 9842 9846 9850 9853 9855 9859 9863 9866 9869 9871 9874 9878 9884 9887 9891 9895 9900 9905 9910 9915 9919 9922 9925 9929 9935 9940 9946 9951 9956 9961
9855 9850 9845 9841 9836 9831 9827 9823 9820 9817 9814 9811 9807 9804 9800 9797 9795 9793 9791 9789 9788 9786 9785 9784 9783 9782 9782 9781 9781 9782 9782 9782 9783 9783 9784 9786 9787 9788 9791 9793 9795 9797 9799 9800 9802 9804 9807 9810 9814 9817 9819 9821 9824 9828 9832 9835 9838 9842 9846 9849 9852 9856 9859 9861 9862 9865 9870 9874 9878 9883 9887 9891 9895 9899 9904 9908 9911 9914 9918 9924 9929 9934 9939 9944 9950
9844 9839 9834 9830 9826 9821 9816 9813 9809 9806 9804 9801 9798 9794 9791 9788 9786 9784 9782 9780 9779 9777 9776 9775 9774 9774 9773 9773 9773 9774 9774 9774 9775 9776 9777 9778 9779 9781 9784 9786 9788 9789 9791 9793 9795 9797 9800 9803 9806 9808 9810 9813 9817 9821 9824 9828 9831 9835 9839 9843 9846 9848 9850 9852 9854 9857 9861 9866 9871 9876 9879 9882 9886 9889 9892 9895 9899 9904 9909 9913 9918 9923 9928 9932 9938
9834 9829 9824 9820 9816 9812 9807 9803 9800 9796 9794 9791 9789 9786 9782 9779 9776 9775 9773 9771 9770 9769 9767 9766 9766 9765 9765 9765 9765 9766 9766 9766 9767 9769 9770 9771 9772 9774 9776 9778 9780 9782 9784 9786 9788 9790 9793 9795 9798 9800 9803 9807 9811 9814 9817 9821 9824 9828 9832 9836 9838 9841 9843 9844 9847 9849 9852 9857 9863 9868 9871 9875 9878 9880 9881 9883 9887 9893 9899 9903 9907 9912 9917 9921 9926
9824 9819 9814 9810 9806 9802 9798 9794 9790 9787 9784 9781 9779 9777 9773 9770 9768 9766 9764 9762 9761 9760 9759 9758 9757 9757 9757 9757 9757 9758 9758 9759 9760 9762 9763 9763 9765 9767 9769 9771 9773 9775 9777 9780 9781 9783 9785 9788 9791 9794 9797 9801 9804 9807 9810 9813 9817 9820 9824 9828 9831 9833 9836 9837 9839 9841 9844 9849 9855 9859 9863 9867 9870 9871 9871 9872 9876 9882 9888 9892 9896 9902 9907 9911 9915
9814 9809 9804 9800 9796 9792 9788 9785 9781 9777 9774 9771 9769 9767 9764 9761 9759 9758 9756 9753 9752 9752 9751 9749 9749 9749 9749 9749 9749 9750 9750 9751 9753 9754 9755 9756 9757 9759 9761 9764 9766 9768 9770 9773 9775 9776 9778 9781 9784 9787 9790 9794 9796 9799 9802 9806 9809 9813 9817 9820 9823 9826 9828 9830 9832 9834 9836 9841 9846 9850 9854 9858 9861 9862 9862 9863 9867 9872 9877 9881 9886 9891 9896 9900 9904
9802 9798 9793 9789 9785 9781 9777 9774 9771 9768 9764 9761 9758 9757 9755 9753 9750 9748 9748 9746 9744 9743 9743 9741 9741 9741 9741 9741 9741 9742 9743 9744 9745 9746 9748 9749 9750 9752 9754 9756 9758 9761 9764 9766 9768 9769 9771 9774 9777 9780 9783 9786 9789 9792 9795 9799 9802 9805 9809 9812 9815 9818 9820 9823 9825 9826 9828 9832 9837 9842 9845 9848 9851 9853 9854 9855 9858 9863 9867 9871 9875 9880 9884 9889 9893
9792 9787 9782 9778 9775 9771 9767 9764 9761 9758 9755 9752 9749 9747 9746 9745 9742 9740 9739 9738 9736 9735 9735 9734 9733 9733 9733 9733 9734 9735 9736 9737 9738 9739 9740 9741 9743 9745 9746 9749 9751 9754 9757 9759 9761 9762 9764 9766 9769 9772 9775 9778 9782 9785 9789 9791 9794 9798 9801 9804 9807 9809 9812 9814 9817 9819 9821 9824 9829 9833 9836 9839 9842 9844 9845 9847 9849 9853 9858 9861 9865 9868 9872 9877 9883
9783 9778 9773 9768 9765 9762 9758 9754 9751 9748 9746 9743 9741 9737 9736 9736 9735 9732 9730 9730 9729 9727 9727 9726 9725 9725 9726 9726 9727 9727 9728 9729 9730 9731 9733 9734 9736 9737 9740 9742 9745 9748 9750 9751 9753 9754 9756 9759 9762 9765 9768 9771 9775 9778 9781 9784 9787 9790 9793 9796 9798 9801 9804 9806 9809 9811 9814 9816 9820 9824 9827 9830 9833 9835 9837 9839 9841 9844 9848 9852 9855 9858 9861 9866 9872
9774 9769 9764 9759 9756 9753 9749 9746 9743 9740 9737 9735 9733 9730 9727 9726 9726 9725 9723 9721 9720 9720 9719 9719 9718 9718 9718 9718 9719 9719 9720 9721 9722 9723 9725 9727 9728 9730 9733 9735 9738 9740 9742 9743 9745 9747 9749 9752 9755 9758 9761 9765 9768 9771 9774 9777 9780 9783 9785 9788 9791 9793 9795 9798 9801 9804 9806 9808 9811 9815 9818 9822 9825 9827 9828 9830 9832 9835 9838 9842 9845 9848 9851 9855 9860
9765 9761 9756 9751 9747 9744 9741 9738 9735 9732 9730 9727 9724 9722 9720 9718 9717 9716 9715 9713 9712 9711 9711 9711 9710 9710 9710 9711 9711 9712 9713 9714 9715 9716 9717 9718 9720 9722 9725 9727 9730 9732 9733 9735 9736 9739 9742 9745 9748 9751 9755 9757 9760 9763 9766 9769 9772 9775 9778 9780 9783 9785 9788 9791 9794 9795 9798 9800 9803 9806 9809 9813 9816 9818 9820 9822 9824 9826 9829 9832 9836 9839 9841 9844 9849
9755 9752 9748 9744 9739 9736 9733 9730 9726 9723 9721 9719 9716 9714 9711 9710 9709 9708 9707 9706 9705 9703 9703 9703 9703 9703 9703 9703 9704 9705 9706 9707 9708 9709 9709 9710 9713 9715 9717 9719 9721 9723 9725 9726 9729 9733 9736 9738 9741 9744 9747 9749 9752 9755 9758 9761 9764 9767 9770 9773 9775 9777 9780 9783 9785 9787 9790 9793 9796 9798 9801 9804 9807 9810 9812 9814 9816 9818 9820 9823 9827 9830 9831 9834 9839
9744 9741 9738 9735 9731 9728 9725 9722 9718 9715 9713 9711 9708 9705 9703 9701 9700 9700 9699 9698 9697 9696 9695 9696 9696 9695 9695 9696 9697 9698 9699 9700 9701 9702 9703 9704 9706 9707 9709 9710 9712 9715 9717 9719 9722 9725 9728 9730 9733 9736 9739 9742 9745 9748 9750 9753 9756 9759 9762 9765 9768 9770 9773 9775 9777 9780 9783 9785 9788 9791 9793 9796 9798 9801 9803 9806 9808 9810 9812 9815 9818 9821 9823 9826 9829
9733 9729 9726 9724 9721 9718 9715 9713 9711 9707 9704 9702 9700 9698 9695 9693 9692 9691 9691 9690 9689 9688 9688 9688 9688 9688 9688 9689 9690 9691 9691 9692 9693 9695 9696 9697 9698 9700 9702 9704 9706 9708 9710 9712 9714 9718 9720 9722 9725 9728 9731 9734 9737 9740 9743 9745 9748 9751 9755 9758 9760 9763 9765 9767 9770 9772 9775 9777 9780 9783 9786 9788 9790 9792 9795 9797 9800 9802 9805 9807 9809 9812 9815 9817 9820
9723 9719 9715 9712 9709 9707 9704 9702 9701 9698 9695 9693 9691 9689 9686 9684 9683 9683 9682 9682 9681 9681 9680 9680 9679 9680 9681 9682 9683 9683 9684 9685 9686 9688 9688 9689 9691 9693 9695 9697 9699 9701 9703 9705 9707 9710 9713 9715 9718 9721 9724 9727 9729 9732 9735 9738 9741 9744 9747 9750 9753 9755 9758 9760 9762 9764 9767 9769 9772 9775 9778 9780 9782 9784 9787 9789 9792 9794 9797 9799 9802 9804 9807 9809 9812
9714 9711 9707 9704 9700 9697 9693 9691 9689 9688 9686 9684 9681 9679 9677 9675 9674 9673 9673 9673 9673 9673 9672 9672 9672 9672 9674 9675 9676 9676 9676 9677 9679 9680 9680 9681 9684 9686 9688 9689 9691 9694 9696 9698 9701 9703 9706 9709 9712 9714 9717 9719 9722 9724 9727 9730 9733 9737 9740 9743 9745 9748 9750 9753 9755 9757 9759 9761 9764 9767 9770 9772 9775 9777 9779 9781 9784 9786 9789 9792 9794 9797 9799 9802 9804
9703 9700 9698 9695 9692 9689 9686 9682 9680 9678 9676 9675 9673 9670 9668 9667 9665 9664 9664 9664 9664 9664 9664 9664 9664 9665 9666 9667 9668 9668 9669 9670 9671 9672 9673 9674 9677 9679 9680 9681 9684 9686 9689 9692 9694 9697 9699 9702 9705 9707 9710 9712 9715 9717 9720 9723 9726 9729 9732 9735 9738 9740 9743 9745 9748 9750 9752 9754 9756 9759 9762 9764 9767 9769 9771 9773 9776 9778 9781 9784 9786 9789 9791 9794 9797
9694 9690 9687 9684 9682 9680 9677 9674 9671 9669 9667 9665 9664 9662 9660 9659 9657 9656 9656 9656 9656 9656 9656 9656 9656 9657 9658 9659 9660 9661 9662 9662 9664 9665 9666 9668 9670 9672 9673 9674 9676 9679 9682 9684 9687 9690 9692 9695 9698 9701 9703 9705 9708 9710 9713 9715 9718 9722 9724 9727 9730 9733 9735 9738 9740 9743 9745 9747 9749 9751 9754 9756 9759 9761 9764 9766 9768 9771 9773 9776 9779 9781 9784 9786 9789
9688 9683 9679 9675 9672 9670 9668 9666 9663 9661 9658 9656 9654 9653 9652 9651 9649 9648 9648 9648 9647 9647 9647 9648 9648 9649 9649 9650 9651 9653 9654 9655 9656 9657 9659 9661 9663 9665 9666 9667 9669 9672 9675 9677 9680 9682 9685 9688 9691 9693 9696 9698 9701 9703 9705 9708 9711 9714 9717 9720 9723 9725 9728 9730 9733 9735 9738 9740 9742 9744 9746 9749 9751 9754 9756 9758 9761 9763 9766 9768 9771 9773 9776 9779 9781
9682 9677 9673 9668 9664 9661 9659 9657 9655 9653 9650 9648 9646 9644 9643 9642 9641 9640 9640 9640 9639 9639 9639 9640 9640 9640 9641 9642 9643 9645 9646 9647 9648 9650 9651 9653 9656 9657 9659 9660 9662 9665 9667 9670 9672 9675 9678 9680 9683 9686 9689 9691 9693 9696 9698 9701 9704 9706 9709 9712 9715 9718 9720 9723 9725 9728 9730 9733 9735 9737 9739 9741 9744 9746 9748 9751 9753 9755 9758 9760 9763 9766 9768 9771 9774
9674 9670 9666 9662 9658 9654 9651 9648 9646 9645 9643 9640 9638 9636 9635 9634 9633 9632 9631 9631 9631 9631 9631 9631 9631 9631 9632 9633 9635 9636 9638 9639 9641 9642 9643 9645 9647 9650 9651 9653 9654 9657 9659 9662 9665 9667 9670 9673 9676 9678 9681 9683 9686 9688 9691 9693 9696 9699 9701 9704 9707 9710 9712 9715 9718 9720 9723 9725 9727 9730 9732 9734 9736 9739 9741 9743 9745 9748 9750 9752 9755 9758 9760 9763 9766
9665 9662 9658 9655 9651 9648 9644 9641 9638 9636 9634 9632 9630 9628 9627 9625 9625 9624 9623 9623 9623 9623 9623 9623 9623 9623 9624 9625 9626 9628 9629 9631 9633 9634 9635 9637 9639 9641 9643 9645 9646 9648 9651 9653 9656 9659 9662 9664 9667 9670 9673 9675 9678 9681 9683 9686 9688 9691 9693 9696 9699 9702 9705 9707 9710 9712 9715 9717 9720 9722 9725 9727 9729 9731 9734 9736 9738 9740 9742 9745 9747 9750 9753 9755 9758
9656 9652 9649 9646 9643 9640 9637 9634 9630 9628 9626 9624 9622 9620 9618 9617 9616 9616 9615 9614 9614 9614 9615 9615 9615 9615 9615 9616 9618 9619 9621 9623 9625 9626 9627 9628 9630 9633 9635 9636 9638 9640 9642 9645 9647 9650 9653 9656 9658 9661 9664 9667 9670 9672 9675 9678 9680 9683 9685 9688 9691 9694 9696 9699 9702 9705 9707 9709 9712 9715 9717 9720 9722 9724 9726 9728 9730 9733 9735 9737 9740 9742 9745 9748 9750
9649 9645 9641 9637 9635 9632 9629 9626 9624 9621 9618 9617 9615 9613 9610 9608 9607 9607 9607 9606 9606 9606 9606 9607 9607 9607 9607 9608 9609 9611 9612 9614 9616 9618 9619 9620 9622 9624 9626 9628 9630 9632 9634 9636 9639 9641 9644 9647 9650 9653 9655 9658 9661 9664 9667 9670 9672 9675 9677 9680 9683 9685 9688 9691 9694 9697 9699 9702 9704 9707 9710 9712 9715 9717 9719 9721 9723 9726 9728 9730 9732 9735 9737 9740 9743
9643 9639 9635 9631 9628 9624 9622 9619 9617 9614 9611 9609 9608 9606 9604 9602 9599 9598 9598 9598 9598 9597 9598 9598 9598 9599 9599 9600 9601 9602 9604 9606 9607 9609 9611 9613 9614 9617 9619 9620 9622 9624 9626 9628 9630 9633 9635 9638 9641 9644 9647 9649 9653 9656 9658 9661 9664 9666 9669 9672 9674 9677 9680 9683 9686 9689 9692 9694 9697 9699 9702 9705 9707 9710 9712 9714 9717 9719 9721 9723 9725 9727 9730 9732 9735
9637 9633 9629 9625 9621 9618 9615 9612 9609 9607 9605 9602 9600 9599 9597 9596 9593 9591 9590 9590 9590 9590 9590 9590 9590 9590 9591 9591 9593 9594 9596 9597 9599 9600 9602 9604 9606 9608 9610 9613 9615 9616 9618 9620 9622 9624 9627 9629 9632 9635 9638 9640 9643 9646 9650 9652 9655 9658 9661 9663 9666 9669 9672 9675 9678 9681 9683 9686 9689 9692 9694 9697 9700 9702 9705 9707 9709 9712 9714 9716 9718 9720 9723 9725 9727
9629 9625 9621 9618 9615 9611 9608 9605 9602 9600 9598 9596 9593 9591 9590 9589 9587 9585 9583 9583 9582 9582 9582 9582 9582 9583 9583 9583 9584 9586 9587 9589 9590 9592 9593 9595 9597 9599 9601 9604 9606 9609 9611 9613 9614 9616 9618 9621 9624 9626 9629 9632 9634 9637 9640 9643 9646 9649 9652 9655 9657 9660 9663 9666 9669 9672 9675 9678 9681 9684 9687 9689 9692 9695 9697 9700 9702 9704 9707 9709 9711 9714 9716 9718 9720
9622 9618 9614 9610 9607 9604 9601 9598 9595 9592 9590 9588 9586 9584 9583 9581 9580 9579 9577 9575 9575 9575 9575 9575 9575 9575 9575 9575 9576 9577 9579 9580 9582 9583 9585 9587 9588 9590 9592 9595 9597 9600 9603 9605 9607 9609 9611 9614 9616 9618 9621 9623 9626 9629 9632 9634 9637 9640 9643 9646 9649 9652 9655 9658 9661 9664 9667 9670 9673 9676 9678 9681 9684 9687 9689 9692 9694 9697 9699 9702 9704 9706 9709 9711 9713
9615 9611 9607 9603 9600 9597 9594 9591 9588 9585 9583 9580 9579 9577 9576 9574 9573 9571 9570 9569 9567 9567 9567 9567 9567 9567 9567 9567 9568 9569 9570 9572 9573 9575 9576 9578 9580 9582 9584 9586 9588 9591 9593 9596 9598 9601 9603 9606 9608 9611 9613 9616 9618 9621 9623 9626 9629 9631 9634 9637 9640 9643 9646 9649 9652 9655 9658 9661 9664 9667 9670 9673 9676 9678 9681 9684 9686 9689 9691 9694 9696 9699 9701 9703 9706